Lid_Strength_Index
3 3 3 3 3 3 3 3 2 2 2 2 2 2 2 2 3 4 6 4 2 -2 -0 4 4 5 6 7 7 7 9 11 11 11 10 8 9 7 6 7 7 6 7 6 6
3 3 4 3 3 3 3 3 3 2 2 2 2 2 2 2 5 6 1 -1 -1 -1 4 6 7 6 7 7 7 8 10 11 9 9 10 9 9 8 9 8 8 7 5 5 5
3 3 4 4 3 3 3 3 3 3 2 2 2 2 2 3 8 8 -2 -2 -1 1 3 5 6 7 8 8 9 9 10 10 9 9 8 9 9 8 9 10 8 8 7 5 5
4 4 4 4 4 4 3 3 3 3 3 3 2 1 2 5 12 6 -3 -2 -1 2 5 7 8 9 10 11 9 12 9 9 9 9 9 10 8 9 9 9 7 7 6 5 5
4 4 4 4 4 4 3 3 3 3 3 3 2 1 5 8 8 6 -2 -1 3 5 7 8 9 10 12 11 10 11 10 9 9 9 8 9 10 10 9 8 7 7 6 6 6
4 4 4 4 4 4 3 3 3 3 3 3 2 2 7 10 6 5 3 4 5 7 8 8 9 9 10 11 11 10 10 10 9 9 9 10 10 10 9 8 7 7 7 6 7
4 4 4 4 4 3 3 3 4 3 3 3 2 3 7 8 6 6 5 6 6 7 8 8 8 9 10 11 9 10 12 10 10 9 9 9 11 10 7 7 8 7 7 7 7
4 4 4 4 4 3 3 4 4 3 2 2 1 4 8 6 6 6 6 6 6 6 7 7 7 8 10 9 11 12 12 13 10 9 9 9 12 8 7 7 7 7 7 7 7
3 4 4 4 4 4 4 4 3 2 2 1 3 7 9 4 7 6 6 7 7 7 7 7 8 11 10 12 13 13 14 13 12 9 9 10 11 8 7 7 7 6 6 7 7
3 4 4 4 4 4 4 4 2 3 2 3 5 9 8 9 7 7 6 7 8 8 8 9 10 11 11 13 16 14 13 12 12 10 10 11 10 8 7 7 7 6 6 6 7
3 4 4 4 4 4 6 7 7 8 7 9 8 9 8 6 6 7 6 7 8 9 11 11 12 13 13 12 12 12 12 13 11 9 11 10 10 9 7 6 6 5 5 6 6
3 3 4 4 4 4 7 8 9 8 10 8 8 7 6 6 9 7 5 8 10 11 11 12 13 12 11 11 11 11 12 12 11 10 10 10 10 8 7 6 6 6 6 5 5
3 4 4 4 4 6 7 8 7 7 9 8 7 7 8 8 9 8 7 8 10 12 12 13 13 11 12 12 12 11 12 12 13 11 9 10 10 9 7 6 6 5 5 4 5
3 3 4 5 6 7 8 6 7 6 11 11 8 9 7 8 9 7 7 9 10 12 12 12 11 12 12 12 11 13 11 11 12 12 14 10 14 9 9 8 7 6 5 5 4
3 3 4 5 6 7 7 6 5 5 16 12 11 8 7 9 9 9 7 9 11 12 11 13 12 12 12 12 10 12 10 11 11 12 12 12 13 10 9 10 9 7 6 5 5
3 4 5 5 6 6 6 5 4 11 16 13 11 11 10 10 9 9 9 8 9 11 11 12 10 11 11 9 9 9 11 12 13 13 15 13 13 12 11 11 9 7 6 6 6
4 4 6 6 7 6 5 5 11 15 12 14 13 12 11 12 11 11 11 11 12 15 14 12 12 11 10 10 9 10 11 16 16 15 15 12 13 11 10 9 8 8 7 7 6
5 6 6 5 5 5 5 8 13 13 13 12 12 11 12 12 12 12 12 13 11 12 13 15 15 11 10 10 12 12 12 16 21 19 16 12 15 11 8 8 7 7 7 7 7
7 7 6 4 4 5 7 12 12 12 12 12 13 14 14 12 12 13 13 12 11 11 14 14 14 10 9 9 10 12 13 11 16 14 17 14 12 10 8 9 9 8 7 7 7
9 9 7 6 5 6 9 12 12 11 11 11 14 13 15 14 14 13 14 11 11 10 9 12 15 11 10 8 8 10 9 15 13 20 20 15 14 14 11 11 10 10 9 8 7
8 9 6 6 6 8 11 11 11 10 10 11 12 14 14 14 13 14 13 11 10 10 9 10 12 12 11 11 11 11 12 12 13 15 18 18 14 10 11 11 11 11 10 9 8
10 9 6 7 9 11 12 11 10 10 10 10 10 11 13 13 13 13 13 12 9 9 11 9 11 14 12 9 9 10 11 12 17 17 15 16 15 9 9 10 10 11 10 10 9
8 11 5 6 11 11 11 10 10 9 10 10 11 10 11 12 14 13 12 10 9 9 10 9 12 16 13 11 9 11 10 10 11 13 17 18 14 8 8 9 10 10 11 10 10
7 11 9 9 10 10 11 11 11 9 9 9 10 10 11 13 12 13 13 10 9 9 8 8 11 13 16 13 11 13 11 11 12 16 15 15 13 11 10 11 11 10 11 10 10
9 9 9 12 11 11 10 11 11 10 8 9 11 11 11 13 14 13 12 12 10 9 8 8 13 11 11 11 11 11 11 11 13 13 16 14 13 11 10 11 11 11 11 9 9
7 10 9 10 12 12 11 10 11 10 9 11 11 10 11 12 12 14 12 12 12 9 9 9 13 11 13 11 11 12 11 11 11 12 13 13 13 10 9 10 10 11 11 11 10
4 5 9 9 10 12 12 10 10 9 9 9 10 10 11 11 10 10 10 10 10 10 10 10 12 14 15 12 12 15 12 11 11 11 12 15 11 10 11 11 11 11 11 11 10